TimeCST,TemperatureF,Dew PointF,Humidity,Sea Level PressureIn,VisibilityMPH,Wind Direction,Wind SpeedMPH,Gust SpeedMPH,PrecipitationIn,Events,Conditions,WindDirDegrees,DateUTC
12:15 AM,9.5,-4.9,52,30.17,10.0,South,5.8,-,N/A,,Overcast,190,2014-02-12 06:15:00
12:35 AM,9.5,-4.9,52,30.17,10.0,SSW,5.8,-,N/A,,Overcast,200,2014-02-12 06:35:00
12:55 AM,9.5,-4.5,53,30.17,10.0,South,5.8,-,N/A,,Overcast,190,2014-02-12 06:55:00
1:15 AM,9.5,-4.4,54,30.16,10.0,South,6.9,-,N/A,,Overcast,180,2014-02-12 07:15:00
1:35 AM,10.0,-4.2,53,30.15,10.0,South,6.9,-,N/A,,Overcast,180,2014-02-12 07:35:00
1:55 AM,10.4,-4.2,52,30.14,10.0,South,5.8,-,N/A,,Overcast,180,2014-02-12 07:55:00
2:15 AM,10.4,-4.0,52,30.14,10.0,South,4.6,-,N/A,,Overcast,190,2014-02-12 08:15:00
2:35 AM,10.8,-4.0,52,30.14,10.0,South,3.5,-,N/A,,Overcast,190,2014-02-12 08:35:00
2:55 AM,10.9,-3.5,52,30.14,5.0,South,4.6,-,N/A,Snow,Light Snow,180,2014-02-12 08:55:00
3:15 AM,10.6,-0.9,60,30.13,2.5,South,3.5,-,N/A,Snow,Light Snow,180,2014-02-12 09:15:00
3:35 AM,10.8,-0.0,62,30.13,4.0,Calm,Calm,-,N/A,Snow,Light Snow,0,2014-02-12 09:35:00
3:55 AM,10.8,0.5,63,30.12,10.0,Calm,Calm,-,N/A,,Overcast,0,2014-02-12 09:55:00
4:15 AM,11.3,-0.2,60,30.12,10.0,Calm,Calm,-,N/A,,Overcast,0,2014-02-12 10:15:00
4:35 AM,11.8,-1.1,56,30.13,10.0,Calm,Calm,-,N/A,Snow,Light Snow,0,2014-02-12 10:35:00
4:55 AM,11.7,-0.6,58,30.12,7.0,Calm,Calm,-,N/A,Snow,Light Snow,0,2014-02-12 10:55:00
5:15 AM,11.7,-0.2,59,30.12,7.0,Calm,Calm,-,N/A,Snow,Light Snow,0,2014-02-12 11:15:00
5:35 AM,11.8,0.5,60,30.12,10.0,Calm,Calm,-,N/A,,Overcast,0,2014-02-12 11:35:00
5:55 AM,11.8,0.9,61,30.12,4.0,Calm,Calm,-,N/A,Snow,Light Snow,0,2014-02-12 11:55:00
6:15 AM,11.8,1.4,63,30.11,10.0,Calm,Calm,-,N/A,,Overcast,0,2014-02-12 12:15:00
6:35 AM,12.0,1.4,62,30.11,10.0,Calm,Calm,-,N/A,,Overcast,0,2014-02-12 12:35:00
6:55 AM,12.0,1.4,62,30.12,10.0,Calm,Calm,-,N/A,,Overcast,0,2014-02-12 12:55:00
7:15 AM,12.6,1.4,61,30.12,10.0,SSW,3.5,-,N/A,,Overcast,210,2014-02-12 13:15:00
7:35 AM,12.2,3.4,68,30.12,3.0,SW,4.6,-,N/A,Snow,Light Snow,220,2014-02-12 13:35:00
7:55 AM,12.0,5.0,73,30.12,1.0,SSW,3.5,-,N/A,Snow,Light Snow,200,2014-02-12 13:55:00
8:15 AM,12.0,6.4,78,30.12,1.0,South,3.5,-,N/A,Snow,Light Snow,190,2014-02-12 14:15:00
8:35 AM,12.6,7.3,80,30.11,1.2,SSW,3.5,-,N/A,Snow,Light Snow,200,2014-02-12 14:35:00
8:55 AM,13.1,7.5,78,30.11,3.0,SW,5.8,-,N/A,Snow,Light Snow,220,2014-02-12 14:55:00
9:15 AM,13.5,7.5,77,30.11,10.0,SW,4.6,-,N/A,,Overcast,220,2014-02-12 15:15:00
9:35 AM,13.8,7.3,75,30.11,10.0,SSW,6.9,-,N/A,,Overcast,210,2014-02-12 15:35:00
9:55 AM,14.7,7.7,74,30.11,7.0,SSW,5.8,-,N/A,Snow,Light Snow,200,2014-02-12 15:55:00
10:15 AM,15.8,8.1,72,30.12,7.0,WSW,5.8,-,N/A,,Overcast,250,2014-02-12 16:15:00
10:35 AM,16.0,7.9,70,30.12,10.0,SW,5.8,-,N/A,,Overcast,230,2014-02-12 16:35:00
10:50 AM,15.3,9.1,77,30.12,1.0,West,4.6,-,N/A,Snow,Light Snow,260,2014-02-12 16:50:00
11:15 AM,16.7,9.0,72,30.12,5.0,WSW,4.6,-,N/A,Snow,Light Snow,250,2014-02-12 17:15:00
11:35 AM,17.1,9.0,71,30.11,10.0,WNW,4.6,-,N/A,,Overcast,290,2014-02-12 17:35:00
11:55 AM,17.4,9.0,69,30.10,10.0,WSW,4.6,-,N/A,Snow,Light Snow,250,2014-02-12 17:55:00
12:15 PM,18.5,8.8,66,30.09,10.0,Calm,Calm,-,N/A,,Overcast,0,2014-02-12 18:15:00
12:35 PM,19.9,9.1,63,30.06,10.0,Calm,Calm,-,N/A,,Mostly Cloudy,0,2014-02-12 18:35:00
12:55 PM,19.2,9.9,67,30.06,10.0,SW,3.5,-,N/A,,Scattered Clouds,220,2014-02-12 18:55:00
1:15 PM,20.8,9.9,63,30.04,10.0,South,3.5,-,N/A,,Clear,190,2014-02-12 19:15:00
1:35 PM,21.2,10.2,63,30.04,10.0,WNW,3.5,-,N/A,,Clear,290,2014-02-12 19:35:00
1:55 PM,21.4,10.0,62,30.05,10.0,West,3.5,-,N/A,,Clear,280,2014-02-12 19:55:00
2:15 PM,21.7,9.9,60,30.03,10.0,Calm,Calm,-,N/A,,Clear,0,2014-02-12 20:15:00
2:35 PM,21.9,10.2,61,30.03,10.0,West,3.5,-,N/A,,Clear,270,2014-02-12 20:35:00
2:55 PM,22.1,10.2,60,30.03,10.0,West,4.6,-,N/A,,Clear,280,2014-02-12 20:55:00
3:15 PM,22.1,10.0,60,30.02,10.0,Calm,Calm,-,N/A,,Clear,0,2014-02-12 21:15:00
3:35 PM,22.1,10.2,60,30.02,10.0,West,5.8,-,N/A,,Clear,270,2014-02-12 21:35:00
3:55 PM,22.6,10.0,59,30.02,10.0,West,5.8,-,N/A,,Clear,270,2014-02-12 21:55:00
4:15 PM,22.5,10.0,59,30.02,10.0,WSW,4.6,-,N/A,,Clear,240,2014-02-12 22:15:00
4:35 PM,22.6,9.7,58,30.01,10.0,SW,4.6,-,N/A,,Clear,230,2014-02-12 22:35:00
4:55 PM,22.5,9.5,58,30.00,10.0,WSW,3.5,-,N/A,,Clear,250,2014-02-12 22:55:00
5:20 PM,21.0,9.5,61,29.99,10.0,Calm,Calm,-,N/A,,Clear,0,2014-02-12 23:20:00
5:35 PM,16.5,6.8,66,29.99,10.0,Calm,Calm,-,N/A,,Clear,0,2014-02-12 23:35:00
5:55 PM,11.5,6.1,79,29.99,10.0,Calm,Calm,-,N/A,,Clear,0,2014-02-12 23:55:00
6:15 PM,9.0,5.0,84,29.99,10.0,Calm,Calm,-,N/A,,Clear,0,2014-02-13 00:15:00
6:35 PM,7.5,4.5,87,29.99,10.0,Calm,Calm,-,N/A,,Clear,0,2014-02-13 00:35:00
6:55 PM,4.5,0.5,84,29.98,10.0,Calm,Calm,-,N/A,,Clear,0,2014-02-13 00:55:00
7:15 PM,3.0,-0.4,86,29.98,7.0,Calm,Calm,-,N/A,,Clear,0,2014-02-13 01:15:00
7:35 PM,3.7,0.7,87,29.98,10.0,Calm,Calm,-,N/A,,Clear,0,2014-02-13 01:35:00
7:55 PM,1.6,-1.7,86,29.98,10.0,Calm,Calm,-,N/A,,Clear,0,2014-02-13 01:55:00
8:15 PM,-0.6,-4.0,85,29.98,7.0,Calm,Calm,-,N/A,,Clear,0,2014-02-13 02:15:00
8:35 PM,1.4,-1.8,86,29.98,7.0,Calm,Calm,-,N/A,,Clear,0,2014-02-13 02:35:00
8:55 PM,-0.6,-4.0,85,29.98,7.0,Calm,Calm,-,N/A,,Clear,0,2014-02-13 02:55:00
9:15 PM,-0.4,-4.2,84,29.97,10.0,Calm,Calm,-,N/A,,Clear,0,2014-02-13 03:15:00
9:35 PM,-0.4,-3.8,85,29.97,7.0,Calm,Calm,-,N/A,,Clear,0,2014-02-13 03:35:00
9:55 PM,-0.0,-4.0,83,29.96,7.0,Calm,Calm,-,N/A,,Clear,0,2014-02-13 03:55:00
10:20 PM,0.9,-3.1,83,29.94,10.0,Calm,Calm,-,N/A,,Clear,0,2014-02-13 04:20:00
10:35 PM,0.5,-3.8,82,29.93,10.0,Calm,Calm,-,N/A,,Clear,0,2014-02-13 04:35:00
10:55 PM,0.3,-4.0,82,29.91,7.0,Calm,Calm,-,N/A,,Clear,0,2014-02-13 04:55:00
11:15 PM,1.6,-2.6,83,29.92,10.0,Calm,Calm,-,N/A,,Clear,0,2014-02-13 05:15:00
11:35 PM,2.1,-2.0,83,29.92,10.0,Calm,Calm,-,N/A,,Clear,0,2014-02-13 05:35:00
11:55 PM,2.1,-1.7,84,29.90,10.0,Calm,Calm,-,N/A,,Clear,0,2014-02-13 05:55:00